KLM1267 EHAM-EKCH

Flight info

Callsign KLM1267
Flight time N/A
Altitude 37000
Route ANDIK N873 JUIST DCT DOSUR P729 TUDLO
Aircraft A21N/M-SDE2E3FGHIRWXY/LB1

Departure

Time N/A
Airport Amsterdam Airport Schiphol (EHAM)

Arrival

Time 2026-04-25 18:15
Airport Copenhagen Kastrup Airport (EKCH)
Time Latitude Longitude Altitude Speed Heading
2026-04-25 17:47 54.79508 9.07832 37065 ft 435 kts 39°
2026-04-25 17:48 54.85683 9.19207 37035 ft 434 kts 40°
2026-04-25 17:49 54.89710 9.27055 37028 ft 434 kts 41°
2026-04-25 17:49 54.93720 9.34966 37023 ft 435 kts 41°
2026-04-25 17:50 54.97708 9.42849 37025 ft 435 kts 40°
2026-04-25 17:50 55.01700 9.50759 37030 ft 434 kts 40°
2026-04-25 17:51 55.05087 9.59664 37018 ft 459 kts 63°
2026-04-25 17:51 55.06522 9.70724 37027 ft 467 kts 71°
2026-04-25 17:51 55.07151 9.76185 36441 ft 465 kts 70°
2026-04-25 17:52 55.07817 9.81734 35537 ft 469 kts 69°
2026-04-25 17:52 55.08047 9.83620 35234 ft 471 kts 69°
2026-04-25 17:52 55.09195 9.92968 33787 ft 477 kts 68°
2026-04-25 17:52 55.09890 9.98644 32821 ft 480 kts 68°
2026-04-25 17:53 55.10584 10.04367 31883 ft 484 kts 68°
2026-04-25 17:53 55.11282 10.10137 30916 ft 487 kts 69°
2026-04-25 17:53 55.11982 10.15963 29958 ft 491 kts 69°
2026-04-25 17:53 55.12686 10.21834 28862 ft 494 kts 68°
2026-04-25 17:54 55.13391 10.27720 27813 ft 496 kts 68°
2026-04-25 17:54 55.14095 10.33637 26767 ft 498 kts 69°
2026-04-25 17:54 55.14786 10.39504 25716 ft 500 kts 69°
2026-04-25 17:54 55.15498 10.45529 24656 ft 502 kts 68°
2026-04-25 17:55 55.16204 10.51528 23545 ft 504 kts 68°
2026-04-25 17:55 55.16898 10.57470 22395 ft 505 kts 69°
2026-04-25 17:55 55.17591 10.63465 21520 ft 500 kts 69°
2026-04-25 17:55 55.18276 10.69391 20797 ft 495 kts 69°
2026-04-25 17:56 55.18953 10.75269 20006 ft 489 kts 69°
2026-04-25 17:56 55.19620 10.81095 19191 ft 485 kts 69°
2026-04-25 17:56 55.20279 10.86849 18391 ft 481 kts 69°
2026-04-25 17:56 55.20933 10.92582 17511 ft 476 kts 69°
2026-04-25 17:57 55.21571 10.98228 16681 ft 471 kts 69°
2026-04-25 17:57 55.22198 11.03822 15897 ft 464 kts 70°
2026-04-25 17:57 55.22812 11.09344 15251 ft 459 kts 69°
2026-04-25 17:57 55.23018 11.11198 15022 ft 458 kts 69°
2026-04-25 17:58 55.24028 11.20220 13965 ft 449 kts 70°
2026-04-25 17:58 55.24423 11.23769 13491 ft 445 kts 70°
2026-04-25 17:58 55.25009 11.29058 12828 ft 439 kts 71°
2026-04-25 17:58 55.25576 11.34192 12202 ft 433 kts 71°
2026-04-25 17:59 55.26135 11.39341 11651 ft 423 kts 72°
2026-04-25 17:59 55.26672 11.44324 11320 ft 409 kts 72°
2026-04-25 17:59 55.27191 11.49131 11047 ft 393 kts 72°
2026-04-25 17:59 55.27688 11.53712 10816 ft 378 kts 72°
2026-04-25 18:00 55.28169 11.58158 10618 ft 364 kts 72°
2026-04-25 18:00 55.28630 11.62440 10402 ft 350 kts 72°
2026-04-25 18:00 55.29070 11.66558 10138 ft 337 kts 72°
2026-04-25 18:00 55.29492 11.70515 9903 ft 324 kts 72°
2026-04-25 18:01 55.29898 11.74327 9668 ft 311 kts 72°
2026-04-25 18:01 55.30288 11.78002 9336 ft 303 kts 72°
2026-04-25 18:01 55.30674 11.81603 8912 ft 299 kts 72°
2026-04-25 18:01 55.31054 11.85175 8542 ft 296 kts 72°
2026-04-25 18:02 55.31431 11.88722 8166 ft 293 kts 72°
2026-04-25 18:02 55.31801 11.92229 7805 ft 291 kts 72°
2026-04-25 18:02 55.32164 11.95711 7441 ft 288 kts 72°
2026-04-25 18:02 55.32525 11.99160 7086 ft 285 kts 72°
2026-04-25 18:03 55.32880 12.02572 6735 ft 283 kts 72°
2026-04-25 18:03 55.33232 12.05964 6375 ft 281 kts 72°
2026-04-25 18:03 55.33580 12.09324 6007 ft 279 kts 72°
2026-04-25 18:03 55.33923 12.12663 5632 ft 277 kts 72°
2026-04-25 18:04 55.34264 12.15987 5264 ft 275 kts 72°
2026-04-25 18:04 55.34593 12.19188 4910 ft 273 kts 72°
2026-04-25 18:04 55.34928 12.22458 4547 ft 271 kts 71°
2026-04-25 18:04 55.35259 12.25702 4164 ft 270 kts 71°
2026-04-25 18:05 55.35587 12.28944 3809 ft 270 kts 71°
2026-04-25 18:05 55.35919 12.32195 3710 ft 270 kts 71°
2026-04-25 18:05 55.36248 12.35446 3708 ft 270 kts 72°
2026-04-25 18:05 55.36574 12.38698 3715 ft 270 kts 72°
2026-04-25 18:06 55.36884 12.41834 3729 ft 256 kts 71°
2026-04-25 18:06 55.37176 12.44827 3713 ft 241 kts 71°
2026-04-25 18:06 55.37461 12.47705 3710 ft 239 kts 71°
2026-04-25 18:06 55.37752 12.50578 3717 ft 238 kts 71°
2026-04-25 18:07 55.38038 12.53451 3729 ft 239 kts 71°
2026-04-25 18:07 55.38324 12.56331 3738 ft 239 kts 71°
2026-04-25 18:07 55.38610 12.59209 3738 ft 238 kts 71°
2026-04-25 18:07 55.38894 12.62080 3725 ft 238 kts 71°
2026-04-25 18:08 55.39175 12.64942 3710 ft 234 kts 71°
2026-04-25 18:08 55.39558 12.67676 3344 ft 224 kts 54°
2026-04-25 18:08 55.40461 12.69788 2970 ft 213 kts 37°
2026-04-25 18:08 55.41502 12.71630 2628 ft 212 kts 35°
2026-04-25 18:09 55.42553 12.73449 2274 ft 212 kts 35°
2026-04-25 18:09 55.43611 12.75261 1934 ft 212 kts 35°
2026-04-25 18:09 55.44708 12.77022 1724 ft 212 kts 28°
2026-04-25 18:09 55.45510 12.78005 1701 ft 211 kts 25°
2026-04-25 18:10 55.47084 12.79826 1691 ft 192 kts 25°
2026-04-25 18:10 55.48192 12.81122 1708 ft 190 kts 25°
2026-04-25 18:10 55.49287 12.82413 1721 ft 188 kts 25°
2026-04-25 18:10 55.50380 12.83687 1720 ft 189 kts 25°
2026-04-25 18:11 55.51485 12.84947 1727 ft 187 kts 20°
2026-04-25 18:11 55.52685 12.85363 1726 ft 172 kts 346°
2026-04-25 18:11 55.53809 12.84707 1739 ft 170 kts 336°
2026-04-25 18:11 55.54789 12.83799 1772 ft 152 kts 322°
2026-04-25 18:12 55.55503 12.82437 1771 ft 151 kts 312°
2026-04-25 18:12 55.56114 12.80921 1747 ft 152 kts 308°
2026-04-25 18:12 55.56694 12.79358 1731 ft 152 kts 308°
2026-04-25 18:12 55.57253 12.77847 1581 ft 140 kts 308°
2026-04-25 18:13 55.57741 12.76527 1424 ft 117 kts 308°
2026-04-25 18:13 55.58183 12.75339 1243 ft 115 kts 308°
2026-04-25 18:13 55.58624 12.74151 1079 ft 116 kts 307°
2026-04-25 18:14 55.59499 12.71779 742 ft 116 kts 308°
2026-04-25 18:14 55.59924 12.70568 588 ft 117 kts 308°
2026-04-25 18:14 55.60358 12.69340 403 ft 118 kts 311°
2026-04-25 18:14 55.60821 12.68148 263 ft 116 kts 313°
2026-04-25 18:15 55.61274 12.66970 100 ft 116 kts 313°
2026-04-25 18:15 55.61716 12.65807 31 ft 107 kts 307°
2026-04-25 18:15 55.61985 12.65092 28 ft 36 kts 303°
2026-04-25 18:15 55.62129 12.64725 30 ft 37 kts 307°
2026-04-25 18:16 55.62169 12.64560 29 ft 9 kts 291°
2026-04-25 18:16 55.62209 12.64456 27 ft 11 kts 317°
2026-04-25 18:16 55.62382 12.64440 29 ft 16 kts 18°
2026-04-25 18:17 55.62492 12.64467 29 ft 18 kts 327°
2026-04-25 18:17 55.62533 12.64374 29 ft 1 kts 303°
2026-04-25 18:17 55.62537 12.64362 29 ft 0 kts 303°
2026-04-25 18:17 55.62537 12.64361 29 ft 0 kts 303°
2026-04-25 18:18 55.62545 12.64341 29 ft 4 kts 304°
2026-04-25 18:18 55.62566 12.64286 29 ft 7 kts 305°
2026-04-25 18:18 55.62602 12.64198 29 ft 10 kts 304°
2026-04-25 18:18 55.62639 12.64099 29 ft 5 kts 304°
2026-04-25 18:19 55.62670 12.64054 29 ft 7 kts 353°
2026-04-25 18:19 55.62707 12.64075 29 ft 4 kts 32°
2026-04-25 18:19 55.62717 12.64087 29 ft 1 kts 34°
2026-04-25 18:19 55.62719 12.64089 29 ft 0 kts 34°